Regional Weather Roundup
Issued by NWS Kansas City/Pleasant Hill, MO

Home | Current Version | Previous Version | Graphics & Text | Print | Product List | Glossary Off
Versions: 1 2 3 4 5 6 7 8 9 10 11 12 13 14 15 16 17 18 19 20 21 22 23 24 25 26 27 28 29 30 31 32 33 34 35 36 37 38 39 40 41 42 43 44 45 46 47 48 49 50

000
ASUS43 KEAX 302210
RWREAX

WEATHER ROUNDUP FOR EASTERN KANSAS AND NORTHWEST MISSOURI
NATIONAL WEATHER SERVICE KANSAS CITY/PLEASANT HILL MO
500 PM CDT TUE JUN 30 2015

KSZ040-057-103>105-MOZ028-029-037-043-302300-
...KANSAS CITY METROPOLITAN AREA...

CITY           SKY/WX    TMP DP  RH WIND       PRES   REMARKS
K.C. INTL      PTSUNNY   84  66  54 NE6       29.90F
K.C. DOWNTOWN  PTSUNNY   87  64  46 CALM      29.89F
LEES SUMMIT    PTSUNNY   87  64  46 NE3       29.91F
OLATHE - IXD   PTSUNNY   91  62  37 NE3       29.91F HAZE    HX  91
OLATHE - OJC   PTSUNNY   87  64  46 E6        29.91F
LAWRENCE       MOSUNNY   89  68  49 SE7       29.88F HX  93

$$

MOZ001>008-011>017-020>025-030>033-038>040-044>046-053-054-302300-
...NORTHERN AND CENTRAL MISSOURI...

CITY           SKY/WX    TMP DP  RH WIND       PRES   REMARKS
ST. JOSEPH     CLOUDY    83  68  60 E3        29.89F
MOSBY          MOCLDY    86  63  45 CALM      29.89F
WARRENSBURG    CLOUDY    84  64  51 CALM      29.90F
WHITEMAN AFB   PTSUNNY   84  68  57 W5        29.91F
CLINTON        CLOUDY    86  70  58 NW3       29.91F HX  90
SEDALIA        CLOUDY    83  69  62 W5        29.93F
WARSAW         FAIR      84  68  58 CALM      29.93F
CHILLICOTHE      N/A     80  71  74 W3        29.91F
KIRKSVILLE     MOSUNNY   79  67  66 W6        29.90F

$$

MOZ041-047>049-056>058-063>065-088>090-097-302300-
...EASTERN AND SOUTHERN MISSOURI...

CITY           SKY/WX    TMP DP  RH WIND       PRES   REMARKS
ST. LOUIS INTL MOSUNNY   85  67  54 W12       29.86F
SPIRIT OF STL  CLOUDY    82  70  66 W8        29.85F
COLUMBIA       MOSUNNY   83  69  62 W10       29.90F
JEFFERSON CITY MOSUNNY   85  66  53 W9        29.88F
MEXICO         PTSUNNY   82  72  69 W9        29.90S
ROLLA          MOSUNNY   81  67  62 W9        29.91F
OSAGE BEACH    PTSUNNY   82  70  65 W5        29.92F
SPRINGFIELD    MOSUNNY   87  66  49 NW7       29.94F
BRANSON        SUNNY     84  68  58 W8        29.97S
NEVADA         PTSUNNY   86  68  54 CALM      29.93F
JOPLIN         MOSUNNY   90  70  51 W6        29.92F HX  95
WEST PLAINS    MOSUNNY   84  67  56 W9        29.96S
MALDEN         SUNNY     90  66  45 W9        29.89F HX  92

$$

IAZ060-094-KSZ022-034>040-054-083-096-NEZ052-066-093-302300-
...KANSAS...SOUTHEAST NEBRASKA AND IOWA...

CITY           SKY/WX    TMP DP  RH WIND       PRES   REMARKS
TOPEKA         SUNNY     89  68  49 E10       29.87F HX  93
MANHATTAN      PTSUNNY   96  63  33 S6        29.83F HX  97
EMPORIA        MOSUNNY   95  62  33 S8        29.87F HX  96
CHANUTE        MOSUNNY   93  65  39 S7        29.89F HX  95
WICHITA        PTSUNNY   99  58  25 SW8       29.87F HX  98
OMAHA          CLOUDY    76  67  73 E5        29.89F
LINCOLN        CLOUDY    83  64  52 E9        29.88F HAZE
FALLS CITY     CLOUDY    80  67  64 E8        29.88F
LAMONI         PTSUNNY   81  68  64 N3        29.90F
DES MOINES     CLOUDY    81  63  54 NW6       29.89S

$$



USA.gov is the U.S. government's official web portal to all federal, state and local government web resources and services.